{"data":{"norad_id":38245,"epoch":"2026-09-19T05:12:57.890016Z","epoch_age_seconds":132634,"freshness":"FRESH","line1":"1 38245U 12016A   26262.21733669  .00000122  00000+0  00000+0 0  9990","line2":"2 38245   0.1036  88.6090 0001154  76.8115 318.5698  1.00272421 46553","mean_motion":1.00272421,"eccentricity":0.0001154,"inclination_deg":0.1036,"raan_deg":88.609,"arg_perigee_deg":76.8115,"mean_anomaly_deg":318.5698,"bstar":0,"rev_number":4655,"period_min":1436.0877952673,"perigee_km":35781.550878752,"apogee_km":35791.282457739,"semimajor_km":42164.553668246,"source":"CELESTRAK","updated_at":"2026-09-20T09:00:35.173897Z"}}